Погода в Никифорово

Россия / Республика Татарстан     55°50′45″N   50°53′25″E
темп.,
°C
ветер,
м/с
пор.,
м/с
влажн.,
%
обл.,
%
осадки,
мм/ч
давл.,
гПа
погр.,
м
19 июня, сб
сб1900:00+12зсз2277100 0.0 102624
03:00+11з358386 0.0 102678
06:00+15зюз5107685 0.0 1025265
09:00+20з7106752 0.0 1023642
12:00+23з811625 0.0 10221191
15:00+24з711653 0.0 10201542
18:00+22з713740 0.0 1019774
21:00+19з714830 0.0 1019372
20 июня, вс
вс2000:00+18з614890 0.0 1019318
03:00+17зсз513900 0.0 1020250
06:00+20сз59810 0.0 1020284
09:00+24сз45683 0.0 1020682
12:00+26ссз46597 0.0 10211394
15:00+27ссз46572 0.1 10211651
18:00+24ссв357440 0.3 1021181
21:00+17вюв347540 0.3 102250
21 июня, пн
пн2100:00+17вюв227029 0.0 102322
03:00+16юв227233 0.1 102315
06:00+17юв3576100 0.3 1023113
09:00+21ю337426 0.4 1023340
12:00+27з34614 1.3 1022971
15:00+28з355613 1.4 10211380
18:00+25юз48790 0.6 1021267
21:00+21з368733 0.6 1021103
22 июня, вт
вт2200:00+19з48880 0.0 1021123
03:00+19з489415 0.0 1021126
06:00+22зсз4784100 0.0 1022208
09:00+26зсз466697 0.0 1021528
12:00+29зсз56564 0.0 10211215
15:00+29зсз45553 0.0 10211699
18:00+23с598269 0.9 1021204
21:00+21з33824 1.4 102126
23 июня, ср
ср2300:00+20зсз34870 0.0 102143
03:00+20сз35901 0.0 102174
06:00+23сз36820 0.0 1021186
09:00+27зсз46640 0.0 1021517
12:00+29сз45540 0.0 10211229
15:00+30сз44500 0.0 10211732
18:00+28сз13700 0.1 1020101
21:00+21сз228762 1.5 102132